Tracking 29606 objects as of 18-Sep-2024
HD Live streaming from Space Station
objects crossing your sky now

FENGYUN 1C DEB

Track FENGYUN 1C DEB now!
10-day predictions


NORAD ID: 30342
Int'l Code: 1999-025ABD
Perigee: 849.4 km
Apogee: 1,101.4 km
Inclination: 100.2 °
Period: 104.4 minutes
Semi major axis: 7346 km
RCS: 0.0538 m2 (small)
Launch date: May 10, 1999
Source: People's Republic of China (PRC)
Launch site: Taiyaun Space Center, China (TSC)

Note: This is SATELLITE DEBRIS
Your satellite tracking list
Your tracking list is empty




NASA's NSSDC Master Catalog

Two Line Element Set (TLE):
1 30342U 99025ABD 24261.96428269  .00003209  00000-0  28704-2 0  9995
2 30342 100.1575  41.7404 0171560 200.3580 280.0814 13.78769605886738
Source of the keplerian elements: AFSPC